Regional Weather Roundup
Issued by NWS Kansas City/Pleasant Hill, MO

Home | Current Version | Previous Version | Graphics & Text | Print | Product List | Glossary Off
Versions: 1 2 3 4 5 6 7 8 9 10 11 12 13 14 15 16 17 18 19 20 21 22 23 24 25 26 27 28 29 30 31 32 33 34 35 36 37 38 39 40 41 42 43 44 45 46 47 48 49 50

000
ASUS43 KEAX 181904
RWREAX

WEATHER ROUNDUP FOR EASTERN KANSAS AND NORTHWEST MISSOURI
NATIONAL WEATHER SERVICE KANSAS CITY/PLEASANT HILL MO
200 PM CDT SAT APR 18 2015

KSZ040-057-103>105-MOZ028-029-037-043-182000-
...KANSAS CITY METROPOLITAN AREA...

CITY           SKY/WX    TMP DP  RH WIND       PRES   REMARKS
K.C. INTL      LGT RAIN  62  60  93 S9        29.92S
K.C. DOWNTOWN  LGT RAIN  63  59  87 S7        29.93R
LEES SUMMIT    LGT RAIN  61  59  93 S7        29.94S
OLATHE - IXD   LGT RAIN  60  59  96 S7        29.93F
OLATHE - OJC   LGT RAIN  61  59  93 S6        29.92F FOG
LAWRENCE       LGT RAIN  62  59  90 SE12      29.91F

$$

MOZ001>008-011>017-020>025-030>033-038>040-044>046-053-054-182000-
...NORTHERN AND CENTRAL MISSOURI...

CITY           SKY/WX    TMP DP  RH WIND       PRES   REMARKS
ST. JOSEPH     CLOUDY    64  59  83 CALM      29.89S
MOSBY          HVY RAIN  63  59  88 S7        29.94R
WARRENSBURG    RAIN      61  59  94 SW5       29.94S
WHITEMAN AFB   LGT RAIN  61  59  93 CALM      29.95R
CLINTON        LGT RAIN  63  63 100 CALM      29.94F
SEDALIA        RAIN      62  59  90 W6        29.97R FOG
WARSAW         NOT AVBL
MARSHALL       TSTM      68  61  77 SW12G18   29.95R
CHILLICOTHE      N/A     70  59  68 VRB6      29.91F
MOBERLY        PTSUNNY   79  54  41 SE14      29.91F
KIRKSVILLE     CLOUDY    73  62  68 SE13      29.91F

$$

MOZ041-047>049-056>058-063>065-088>090-097-182000-
...EASTERN AND SOUTHERN MISSOURI...

CITY           SKY/WX    TMP DP  RH WIND       PRES   REMARKS
ST. LOUIS INTL CLOUDY    75  60  59 SE12      29.96F
SPIRIT OF STL  CLOUDY    73  61  65 SE9       29.94F
COLUMBIA       PTSUNNY   75  56  51 S14G24    29.92S
JEFFERSON CITY PTSUNNY   74  57  55 S15       29.92S
MEXICO         PTSUNNY   77  63  61 SE15      29.92F
HANNIBAL       PTSUNNY   81  50  34 SE13G21   29.93F
ROLLA          CLOUDY    75  57  53 S10       29.92F
LEBANON        TSTM      63  59  88 S7        29.96S
OSAGE BEACH    CLOUDY    64  55  72 W7G31     29.94S THUNDER
SPRINGFIELD    CLOUDY    65  58  78 NW6       29.95F
NEVADA         LGT RAIN  63  59  88 CALM      29.94F
JOPLIN         LGT RAIN  63  60  90 E5        29.94F
WEST PLAINS    PTSUNNY   70  57  63 SE8G17    29.97F

$$

IAZ060-094-KSZ022-034>040-054-083-096-NEZ052-066-093-182000-
...KANSAS...SOUTHEAST NEBRASKA AND IOWA...

CITY           SKY/WX    TMP DP  RH WIND       PRES   REMARKS
TOPEKA         LGT RAIN  63  60  90 E6        29.90S
MANHATTAN      CLOUDY    69  61  75 S15       29.87S
EMPORIA        LGT RAIN  61  59  93 S13       29.91S
CHANUTE        CLOUDY    63  58  83 E7        29.91F
WICHITA        PTSUNNY   71  59  65 SE10G20   29.86F
OMAHA          RAIN      62  59  90 SE13      29.90S FOG
LINCOLN        CLOUDY    65  59  81 SE12      29.89F
FALLS CITY     LGT RAIN  63  59  87 CALM      29.89F
LAMONI         LGT RAIN  64  60  87 SW8       29.91R
DES MOINES     CLOUDY    75  56  51 SE25G36   29.87F

$$



USA.gov is the U.S. government's official web portal to all federal, state and local government web resources and services.